User: anonymous   Login
Location: house
(32.4460°N, 85.5928°W)
Time: 21:49:37
(UTC-05:00)
Language:

BEESAT - Orbit

View from above orbital plane
View from above orbital plane
View from above satellite
View from above satellite

Ground track
Ground track

The orbit data is extracted from the following two-line orbital elements,

1 35933U 09051C   19292.71597973  .00000101  00000-0  33720-4 0  9990
2 35933  98.6008 104.1916 0006251 152.2389 207.9142 14.56404122534794
Epoch (UTC): 19 October 2019 17:11:00
Eccentricity: 0.0006251
inclination: 98.6008°
perigee height: 700 km
apogee height: 709 km
right ascension of ascending node: 104.1916°
argument of perigee: 152.2389°
revolutions per day: 14.56404122
mean anomaly at epoch: 207.9142°
orbit number at epoch: 53479

The dashed part of the orbit path shows where the satellite is in the earth's shadow,  

DLR